Find Starlink 35894

NORAD ID: 66500 Int'l Des: 2025-263 Owner: SPXS Country: US Constellation: starlink operational
LEOCIRCULAR

当前视图

正在加载3D地球...

About Starlink 35894

Starlink 35894 (NORAD 66500) is a starlink constellation satellite (v2 mini) launched Nov 15, 2025 by SPXS of US. It operates in LEO, CIRCULAR orbit with a mass of 575.00 kg.

关于 Starlink 35894

正在加载描述...

即将过境

Passes for default location (London). Set your location on the main map for personalized predictions.

高度历史

Loading altitude history...

两行轨道根数

1 66500U 25263R 26166.66684866 .00021050 00000-0 77199-3 0 9990
2 66500 43.0080 160.8073 0000740 152.1511 207.9381 15.27593124 33843
Epoch: Jun 15, 2026 • Age: 14 hours

当前状态

高度 485.7 km
速度 7.63 km/s
星下点 42.09°N, 129.84°W
发射日期 Nov 15, 2025
运行时间 0.5 years
类型 internet

技术详情

分类 Payload
质量 575.00 kg
干质量 530.00 kg
总质量 575.00 kg
长度 0.30 m
直径 4.10 m
跨度 29.00 m
形状 Box + pan
制造商 SPXS
平台类型 Starlink V2MO
阶段状态 In Orbit
所有者/国家 SPXS/US

Most Searched